Date String (YYYY-MM-DD hh:mm:ss) UTC,Instrument flags,absolute air pressure of the measurement (hPa),sample flow rate (lpm),inlet stack bypass flow (lpm),air temperature of the measurement (°C),ambient temperature measured by the external sensor (°C),aerosol sample conditioner tube jacket temperature (°C),OPC LED temperature (°C),internal box temperature (°C),relative humidity of the measurement (%),span deviation,mass concentration of particles derived from Lorenz-Mie calculation of OPC scattering (μg/m³),mass concentration of particles derived from Lorenz-Mie calculation of OPC scattering (μg/m³),mass concentration of particles derived from Lorenz-Mie calculation of OPC scattering (μg/m³)
DateTimeUTC,F1_M11,P_M11,Q1_M11,Q2_M11,T1_M11,T2_M11,T3_M11,T4_M11,T5_M11,U1_M11,ZSPAN_M11,X0_M11,X2_M11,X1_M11
2024-02-01 20:00:00,SystemResetWarning,0823.0,5.00,000.00,025.6,025.0,000.0,033.9,027.5,10.7,0000.0,0011.19,0003.40,0002.86
2024-02-01 20:01:00,SystemResetWarning,0822.9,5.01,000.00,025.7,025.2,000.0,033.9,027.5,10.8,0000.0,0010.34,0003.38,0002.83
2024-02-01 20:02:00,SystemResetWarning,0823.0,5.01,000.00,025.8,025.3,000.0,033.9,027.6,10.6,0000.0,0010.26,0003.33,0002.80
2024-02-01 20:03:00,SystemResetWarning,0822.9,5.00,000.00,025.8,025.4,000.0,034.0,027.7,10.5,0000.0,0010.20,0003.31,0002.80
2024-02-01 20:04:00,SystemResetWarning,0822.9,5.00,000.00,025.9,025.5,000.0,034.0,027.7,10.3,0000.0,0010.02,0003.32,0002.80
2024-02-01 20:05:00,SystemResetWarning,0822.9,5.00,000.00,025.9,025.5,000.0,034.0,027.8,10.2,0000.0,0009.99,0003.32,0002.78
2024-02-01 20:06:00,SystemResetWarning,0822.9,5.00,000.00,026.0,025.6,000.0,034.1,027.9,10.1,0000.0,0010.27,0003.32,0002.77
2024-02-01 20:07:00,SystemResetWarning,0822.9,5.00,000.00,026.0,025.7,000.0,034.1,027.9,10.1,0000.0,0010.19,0003.32,0002.76
2024-02-01 20:08:00,SystemResetWarning,0822.9,5.00,000.00,026.1,025.7,000.0,034.1,028.0,10.1,0000.0,0009.86,0003.32,0002.72
2024-02-01 20:09:00,SystemResetWarning,0823.0,5.00,000.00,026.1,025.8,000.0,034.2,028.0,10.0,0000.0,0009.62,0003.29,0002.69
2024-02-01 20:10:00,SystemResetWarning,0822.8,4.98,000.00,026.0,024.6,000.0,034.2,027.4,10.0,0000.0,0009.10,0003.28,0002.66
2024-02-01 20:11:00,SystemResetWarning,0823.0,5.00,000.00,025.6,022.2,000.0,034.3,026.1,10.2,0000.0,0009.07,0003.25,0002.63
2024-02-01 20:12:00,SystemResetWarning,0822.8,5.01,000.00,025.2,021.7,000.0,034.3,025.6,10.4,0000.0,0009.17,0003.24,0002.60
2024-02-01 20:13:00,SystemResetWarning,0822.7,5.00,000.00,025.0,022.0,000.0,034.1,025.7,10.5,0000.0,0008.91,0003.21,0002.56
2024-02-01 20:14:00,SystemResetWarning,0822.9,4.99,000.00,025.0,022.5,000.0,033.9,026.1,10.4,0000.0,0008.99,0003.17,0002.49
2024-02-01 20:15:00,SystemResetWarning,0822.8,5.00,000.00,025.0,022.9,000.0,033.8,026.4,10.4,0000.0,0010.10,0003.14,0002.43
2024-02-01 20:16:00,SystemResetWarning,0823.0,5.01,000.00,025.1,023.3,000.0,033.7,026.6,10.2,0000.0,0010.03,0003.10,0002.36
2024-02-01 20:17:00,SystemResetWarning,0823.0,5.01,000.00,025.1,023.6,000.0,033.7,026.7,10.2,0000.0,0009.39,0002.97,0002.30
2024-02-01 20:18:00,SystemResetWarning,0822.8,4.99,000.00,025.2,023.9,000.0,033.6,026.9,10.3,0000.0,0009.06,0002.84,0002.23
2024-02-01 20:19:00,SystemResetWarning,0823.0,4.99,000.00,025.2,024.2,000.0,033.6,027.0,10.1,0000.0,0008.71,0002.77,0002.20
2024-02-01 20:20:00,SystemResetWarning,0823.1,5.01,000.00,025.3,024.4,000.0,033.6,027.1,09.9,0000.0,0008.58,0002.74,0002.16
2024-02-01 20:21:00,SystemResetWarning,0823.1,5.01,000.00,025.3,024.6,000.0,033.6,027.2,10.0,0000.0,0008.54,0002.67,0002.11
2024-02-01 20:22:00,SystemResetWarning,0823.1,4.98,000.00,025.4,024.7,000.0,033.6,027.3,09.9,0000.0,0008.05,0002.62,0002.06
2024-02-01 20:23:00,SystemResetWarning,0823.2,5.00,000.00,025.5,024.9,000.0,033.7,027.3,10.1,0000.0,0007.99,0002.55,0002.00
2024-02-01 20:24:00,SystemResetWarning,0822.9,5.01,000.00,025.5,025.0,000.0,033.7,027.4,10.3,0000.0,0007.36,0002.57,0001.99
2024-02-01 20:25:00,SystemResetWarning,0822.9,5.00,000.00,025.6,025.1,000.0,033.7,027.4,10.2,0000.0,0006.80,0002.56,0001.99
2024-02-01 20:26:00,SystemResetWarning,0822.8,5.00,000.00,025.6,025.2,000.0,033.7,027.5,10.1,0000.0,0004.71,0002.54,0002.01
2024-02-01 20:27:00,SystemResetWarning,0822.8,5.00,000.00,025.7,025.3,000.0,033.8,027.6,10.0,0000.0,0004.37,0002.55,0002.04
2024-02-01 20:28:00,SystemResetWarning,0822.7,5.02,000.00,025.8,025.4,000.0,033.8,027.6,10.1,0000.0,0005.42,0002.62,0002.09
2024-02-01 20:29:00,SystemResetWarning,0822.7,5.00,000.00,025.8,025.5,000.0,033.8,027.7,10.1,0000.0,0006.63,0002.75,0002.17
2024-02-01 20:30:00,SystemResetWarning,0822.8,4.99,000.00,025.9,025.5,000.0,033.9,027.7,10.0,0000.0,0006.82,0002.83,0002.24
2024-02-01 20:31:00,SystemResetWarning,0822.7,5.00,000.00,025.9,025.6,000.0,033.9,027.8,10.0,0000.0,0007.07,0002.88,0002.30
2024-02-01 20:32:00,SystemResetWarning,0823.1,5.00,000.00,026.0,025.7,000.0,034.0,027.9,09.9,0000.0,0007.36,0002.85,0002.34
2024-02-01 20:33:00,SystemResetWarning,0822.7,5.00,000.00,026.0,025.7,000.0,034.0,027.9,10.0,0000.0,0007.30,0002.87,0002.36
2024-02-01 20:34:00,SystemResetWarning,0822.8,5.00,000.00,026.1,025.8,000.0,034.0,028.0,09.8,0000.0,0007.27,0002.91,0002.39
2024-02-01 20:35:00,SystemResetWarning,0822.6,5.00,000.00,026.1,025.6,000.0,034.1,027.9,09.8,0000.0,0007.44,0002.89,0002.40
2024-02-01 20:36:00,SystemResetWarning,0822.6,5.00,000.00,025.9,023.7,000.0,034.2,026.9,09.9,0000.0,0007.52,0002.88,0002.38
2024-02-01 20:37:00,SystemResetWarning,0822.6,5.02,000.00,025.5,022.7,000.0,034.2,026.3,10.1,0000.0,0007.66,0002.92,0002.37
2024-02-01 20:38:00,SystemResetWarning,0822.6,4.99,000.00,025.3,022.8,000.0,034.1,026.3,10.2,0000.0,0008.15,0002.92,0002.37
2024-02-01 20:39:00,SystemResetWarning,0822.4,5.00,000.00,025.3,023.2,000.0,034.0,026.5,10.4,0000.0,0008.19,0002.86,0002.34
2024-02-01 20:40:00,SystemResetWarning,0822.5,5.00,000.00,025.3,023.6,000.0,033.9,026.8,10.2,0000.0,0008.16,0002.80,0002.29
2024-02-01 20:41:00,SystemResetWarning,0822.4,5.00,000.00,025.4,023.9,000.0,033.9,027.0,10.1,0000.0,0008.27,0002.74,0002.24
2024-02-01 20:42:00,SystemResetWarning,0822.4,5.00,000.00,025.4,024.2,000.0,033.8,027.1,10.3,0000.0,0009.11,0002.72,0002.19
2024-02-01 20:43:00,SystemResetWarning,0822.5,5.00,000.00,025.5,024.5,000.0,033.8,027.2,10.3,0000.0,0008.73,0002.70,0002.16
2024-02-01 20:44:00,SystemResetWarning,0822.5,5.00,000.00,025.5,024.7,000.0,033.8,027.3,10.3,0000.0,0008.72,0002.71,0002.15
2024-02-01 20:45:00,SystemResetWarning,0822.6,5.00,000.00,025.6,024.9,000.0,033.8,027.4,10.2,0000.0,0008.76,0002.77,0002.14
2024-02-01 20:46:00,SystemResetWarning,0822.8,5.00,000.00,025.7,025.0,000.0,033.8,027.5,09.9,0000.0,0009.31,0002.78,0002.09
2024-02-01 20:47:00,SystemResetWarning,0822.6,5.00,000.00,025.7,025.2,000.0,033.9,027.6,09.7,0000.0,0010.28,0002.81,0002.07
2024-02-01 20:48:00,SystemResetWarning,0822.6,4.98,000.00,025.8,025.3,000.0,033.9,027.6,09.6,0000.0,0010.65,0002.74,0002.05
2024-02-01 20:49:00,SystemResetWarning,0822.4,4.99,000.00,025.8,025.4,000.0,033.9,027.7,09.7,0000.0,0010.65,0002.74,0002.03
2024-02-01 20:50:00,SystemResetWarning,0822.4,5.01,000.00,025.9,025.5,000.0,033.9,027.8,09.6,0000.0,0010.68,0002.75,0002.01
2024-02-01 20:51:00,SystemResetWarning,0822.4,5.01,000.00,025.9,025.4,000.0,034.0,027.7,09.6,0000.0,0010.25,0002.74,0002.00
2024-02-01 20:52:00,SystemResetWarning,0822.4,4.98,000.00,025.7,023.5,000.0,034.1,026.7,09.8,0000.0,0010.49,0002.78,0002.00
2024-02-01 20:53:00,SystemResetWarning,0822.4,5.00,000.00,025.2,021.8,000.0,034.1,025.7,09.9,0000.0,0009.85,0002.74,0001.99
2024-02-01 20:54:00,SystemResetWarning,0822.4,5.01,000.00,025.0,021.9,000.0,034.0,025.6,10.0,0000.0,0010.04,0002.77,0001.99
2024-02-01 20:55:00,SystemResetWarning,0822.4,5.00,000.00,024.9,022.3,000.0,033.8,025.8,10.3,0000.0,0010.11,0002.76,0001.97
2024-02-01 20:56:00,SystemResetWarning,0822.4,5.00,000.00,024.9,022.7,000.0,033.7,026.2,10.5,0000.0,0010.36,0002.71,0001.96
2024-02-01 20:57:00,SystemResetWarning,0822.4,5.01,000.00,025.0,023.2,000.0,033.6,026.4,10.5,0000.0,0009.66,0002.67,0001.97
2024-02-01 20:58:00,SystemResetWarning,0822.4,4.98,000.00,025.0,023.6,000.0,033.6,026.6,10.2,0000.0,0008.67,0002.62,0001.96
2024-02-01 20:59:00,SystemResetWarning,0822.4,4.99,000.00,025.1,023.9,000.0,033.5,026.8,09.9,0000.0,0008.11,0002.61,0001.96
